Back to catalog

FENGYUN 1C DEB

AlivePO
NORAD 33640·DEBRIS·🇨🇳 China

Launched May 10, 1999 from Taiyuan Satellite Launch Center

Loading…

Next Passes (next 24 hours)

TLE

FreshSource: Space-Track

Epoch: Sep 12, 2026, 08:29 UTC

1 33640U 99025DDZ 26255.35400125  .00001231  00000-0  33590-3 0  9991
2 33640  98.8695 215.3923 0090457  60.9863 300.0355 14.46888148962987

Track FENGYUN 1C DEB in real time with AllMySat

Download on the App Store